Location: Antoign�
(47.0844°N, 0.1131°W)
Time: 19:29:25
(UTC+00:00)

MetOp-A - Pass Details

Date: 03 March 2021
Orbit: 819 x 821 km, 98.5° (Epoch: 14 April)

Event Time Altitude Azimuth Distance (km) Brightness Sun altitude
Exits shadow 19:27:03 - 159° (SSE) 2,821 6.6 -17.4°
Reaches altitude 10° 19:28:05 10° 159° (SSE) 2,413 6.3 -17.6°
Maximum altitude 19:33:25 78° 73° (ENE) 844 4.0 -18.5°
Drops below altitude 10° 19:38:48 10° 348° (NNW) 2,430 6.9 -19.4°
Sets 19:41:10 0° 348° (NNW) 3,367 7.7 -19.8°
